Tracking 19638 objects as of 21-Apr-2019
HD Live streaming from Space Station
objects crossing your sky now

IRIDIUM 46

Track IRIDIUM 46 now!
10-day predictions
IRIDIUM 46 is classified as:


NORAD ID: 24905
Int'l Code: 1997-043C
Perigee: 235.2 km
Apogee: 341.0 km
Inclination: 86.4 °
Period: 90.1 minutes
Semi major axis: 6659 km
RCS: 3.9325 m2 (large)
Launch date: August 21, 1997
Source: United States (US)
Launch site: AIR FORCE WESTERN TEST RANGE (AFWTR)
aabbcc
Your satellite tracking list
Your tracking list is empty




NASA's NSSDC Master Catalog

Two Line Element Set (TLE):
1 24905U 97043C   19111.21904444  .00376829  56304-4  60249-3 0  9995
2 24905  86.3554 297.1257 0079431 120.0078 240.9120 15.97646013139281
Source of the keplerian elements: AFSPC